Time,TemperatureF,DewpointF,PressureIn,WindDirection,WindDirectionDegrees,WindSpeedMPH,WindSpeedGustMPH,Humidity,HourlyPrecipIn,Conditions,Clouds,dailyrainin,SoftwareType,DateUTC
2013-08-12 00:00:00,60.1,44.4,30.03,North,-999,0.0,3.6,56,0.00,,,-99.99,FreeWX 2.05,2013-08-11 23:00:00,
2013-08-12 00:10:00,59.7,45.0,30.03,North,-999,0.0,4.0,58,0.00,,,-99.99,FreeWX 2.05,2013-08-11 23:10:00,
2013-08-12 00:20:00,59.5,45.1,30.03,North,-999,0.0,4.5,59,0.00,,,-99.99,FreeWX 2.05,2013-08-11 23:20:00,
2013-08-12 00:25:00,59.4,45.0,30.03,North,-999,0.0,3.1,59,0.00,,,-99.99,FreeWX 2.05,2013-08-11 23:25:00,
2013-08-12 00:30:00,59.4,45.5,30.03,North,-999,0.0,3.6,60,0.00,,,-99.99,FreeWX 2.05,2013-08-11 23:30:00,
2013-08-12 00:35:00,59.2,45.3,30.03,North,-999,0.0,4.5,60,0.00,,,-99.99,FreeWX 2.05,2013-08-11 23:35:00,
2013-08-12 00:40:00,59.2,45.3,30.00,North,-999,0.0,4.0,60,0.00,,,-99.99,FreeWX 2.05,2013-08-11 23:40:00,
2013-08-12 00:55:00,58.8,45.3,30.00,North,-999,0.0,0.0,61,0.00,,,-99.99,FreeWX 2.05,2013-08-11 23:55:00,
2013-08-12 01:00:00,58.8,45.9,30.00,North,-999,0.0,0.0,62,0.00,,,-99.99,FreeWX 2.05,2013-08-12 00:00:00,
2013-08-12 01:05:00,58.8,45.9,30.00,North,-999,0.0,2.7,62,0.00,,,-99.99,FreeWX 2.05,2013-08-12 00:05:00,
2013-08-12 01:15:00,58.8,46.2,30.00,North,-999,0.0,4.0,63,0.00,,,-99.99,FreeWX 2.05,2013-08-12 00:15:00,
2013-08-12 01:25:00,58.6,46.0,30.00,North,-999,0.0,3.6,63,0.00,,,-99.99,FreeWX 2.05,2013-08-12 00:25:00,
2013-08-12 01:30:00,58.5,45.9,30.00,North,-999,0.0,0.0,63,0.00,,,-99.99,FreeWX 2.05,2013-08-12 00:30:00,
2013-08-12 01:35:00,58.5,46.4,30.00,North,-999,0.0,0.0,64,0.00,,,-99.99,FreeWX 2.05,2013-08-12 00:35:00,
2013-08-12 01:45:00,58.3,46.2,30.00,North,-999,0.0,0.0,64,0.00,,,-99.99,FreeWX 2.05,2013-08-12 00:45:00,
2013-08-12 01:50:00,58.3,46.2,30.00,North,-999,0.0,0.0,64,0.00,,,-99.99,FreeWX 2.05,2013-08-12 00:50:00,
2013-08-12 02:00:00,58.1,46.4,30.00,North,-999,0.0,3.6,65,0.00,,,-99.99,FreeWX 2.05,2013-08-12 01:00:00,
2013-08-12 02:05:00,57.9,46.6,30.00,North,-999,0.0,4.5,66,0.00,,,-99.99,FreeWX 2.05,2013-08-12 01:05:00,
2013-08-12 02:10:00,57.9,46.6,30.00,North,-999,0.0,0.0,66,0.00,,,-99.99,FreeWX 2.05,2013-08-12 01:10:00,
2013-08-12 02:20:00,57.7,46.9,30.00,North,-999,0.0,4.0,67,0.00,,,-99.99,FreeWX 2.05,2013-08-12 01:20:00,
2013-08-12 02:30:00,57.6,46.8,30.00,North,-999,0.0,0.0,67,0.00,,,-99.99,FreeWX 2.05,2013-08-12 01:30:00,
2013-08-12 02:40:00,57.2,46.8,30.00,North,-999,0.0,0.0,68,0.00,,,-99.99,FreeWX 2.05,2013-08-12 01:40:00,
2013-08-12 02:45:00,57.0,46.6,30.00,North,-999,0.0,0.0,68,0.00,,,-99.99,FreeWX 2.05,2013-08-12 01:45:00,
2013-08-12 02:50:00,57.0,46.9,30.00,North,-999,0.0,0.0,69,0.00,,,-99.99,FreeWX 2.05,2013-08-12 01:50:00,
2013-08-12 02:55:00,56.8,46.8,30.00,North,-999,0.0,0.0,69,0.00,,,-99.99,FreeWX 2.05,2013-08-12 01:55:00,
2013-08-12 03:00:00,56.8,47.1,30.00,North,-999,0.0,0.0,70,0.00,,,-99.99,FreeWX 2.05,2013-08-12 02:00:00,
2013-08-12 03:05:00,56.8,47.1,30.00,North,-999,0.0,0.0,70,0.00,,,-99.99,FreeWX 2.05,2013-08-12 02:05:00,
2013-08-12 03:20:00,56.7,47.3,30.00,North,-999,0.0,0.0,71,0.00,,,-99.99,FreeWX 2.05,2013-08-12 02:20:00,
2013-08-12 03:30:00,56.7,47.3,30.00,North,-999,0.0,0.0,71,0.00,,,-99.99,FreeWX 2.05,2013-08-12 02:30:00,
2013-08-12 03:35:00,56.7,47.7,30.00,North,-999,0.0,3.1,72,0.00,,,-99.99,FreeWX 2.05,2013-08-12 02:35:00,
2013-08-12 03:40:00,56.5,47.5,30.00,North,-999,0.0,0.0,72,0.00,,,-99.99,FreeWX 2.05,2013-08-12 02:40:00,
2013-08-12 03:45:00,56.5,47.5,30.00,North,-999,0.0,0.0,72,0.00,,,-99.99,FreeWX 2.05,2013-08-12 02:45:00,
2013-08-12 03:55:00,56.5,47.8,30.00,North,-999,0.0,3.6,73,0.00,,,-99.99,FreeWX 2.05,2013-08-12 02:55:00,
2013-08-12 04:00:00,56.3,47.8,30.00,North,-999,0.0,3.6,73,0.00,,,-99.99,FreeWX 2.05,2013-08-12 03:00:00,
2013-08-12 04:05:00,56.3,47.8,30.00,North,-999,0.0,4.0,73,0.00,,,-99.99,FreeWX 2.05,2013-08-12 03:05:00,
2013-08-12 04:15:00,56.1,48.0,30.00,North,-999,0.0,0.0,74,0.00,,,-99.99,FreeWX 2.05,2013-08-12 03:15:00,
2013-08-12 04:20:00,56.1,48.4,30.00,North,-999,0.0,0.0,75,0.00,,,-99.99,FreeWX 2.05,2013-08-12 03:20:00,
2013-08-12 04:30:00,56.1,48.4,30.00,North,-999,0.0,0.0,75,0.00,,,-99.99,FreeWX 2.05,2013-08-12 03:30:00,
2013-08-12 04:40:00,55.9,48.2,30.00,North,-999,0.0,0.0,75,0.00,,,-99.99,FreeWX 2.05,2013-08-12 03:40:00,
2013-08-12 04:50:00,55.9,48.6,30.00,North,-999,0.0,0.0,76,0.00,,,-99.99,FreeWX 2.05,2013-08-12 03:50:00,
2013-08-12 04:55:00,55.8,48.4,30.00,North,-999,0.0,0.0,76,0.00,,,-99.99,FreeWX 2.05,2013-08-12 03:55:00,
2013-08-12 05:00:00,55.8,48.4,30.00,North,-999,0.0,0.0,76,0.00,,,-99.99,FreeWX 2.05,2013-08-12 04:00:00,
2013-08-12 05:05:00,55.8,48.4,30.00,North,-999,0.0,0.0,76,0.00,,,-99.99,FreeWX 2.05,2013-08-12 04:05:00,
2013-08-12 05:10:00,55.8,48.4,29.97,North,-999,0.0,0.0,76,0.00,,,-99.99,FreeWX 2.05,2013-08-12 04:10:00,
2013-08-12 05:15:00,55.8,48.4,29.97,North,-999,0.0,0.0,76,0.00,,,-99.99,FreeWX 2.05,2013-08-12 04:15:00,
2013-08-12 05:20:00,55.8,48.7,29.97,North,-999,0.0,0.0,77,0.00,,,-99.99,FreeWX 2.05,2013-08-12 04:20:00,
2013-08-12 05:30:00,55.8,48.7,29.97,North,-999,0.0,0.0,77,0.00,,,-99.99,FreeWX 2.05,2013-08-12 04:30:00,
2013-08-12 05:40:00,55.8,48.7,29.97,North,-999,0.0,0.0,77,0.00,,,-99.99,FreeWX 2.05,2013-08-12 04:40:00,
2013-08-12 05:45:00,55.8,48.7,29.97,North,-999,0.0,0.0,77,0.00,,,-99.99,FreeWX 2.05,2013-08-12 04:45:00,
2013-08-12 05:50:00,55.8,48.7,29.97,North,-999,0.0,0.0,77,0.00,,,-99.99,FreeWX 2.05,2013-08-12 04:50:00,
2013-08-12 05:55:00,55.8,48.9,29.97,North,-999,0.0,0.0,78,0.00,,,-99.99,FreeWX 2.05,2013-08-12 04:55:00,
2013-08-12 06:05:00,55.9,49.1,29.97,North,-999,0.0,0.0,78,0.00,,,-99.99,FreeWX 2.05,2013-08-12 05:05:00,
2013-08-12 06:10:00,55.8,48.9,30.00,North,-999,0.0,0.0,78,0.00,,,-99.99,FreeWX 2.05,2013-08-12 05:10:00,
2013-08-12 06:15:00,55.8,48.9,30.00,North,-999,0.0,0.0,78,0.00,,,-99.99,FreeWX 2.05,2013-08-12 05:15:00,
2013-08-12 06:25:00,55.8,48.9,30.00,North,-999,0.0,0.0,78,0.00,,,-99.99,FreeWX 2.05,2013-08-12 05:25:00,
2013-08-12 06:30:00,55.9,49.5,30.00,North,-999,0.0,0.0,79,0.00,,,-99.99,FreeWX 2.05,2013-08-12 05:30:00,
2013-08-12 06:40:00,56.1,49.6,30.00,North,-999,0.0,2.7,79,0.00,,,-99.99,FreeWX 2.05,2013-08-12 05:40:00,
2013-08-12 06:45:00,56.3,49.8,30.00,North,-999,0.0,0.0,79,0.00,,,-99.99,FreeWX 2.05,2013-08-12 05:45:00,
2013-08-12 06:50:00,56.5,50.0,30.00,North,-999,0.0,0.0,79,0.00,,,-99.99,FreeWX 2.05,2013-08-12 05:50:00,
2013-08-12 07:00:00,56.7,50.2,30.00,North,-999,0.0,0.0,79,0.00,,,-99.99,FreeWX 2.05,2013-08-12 06:00:00,
2013-08-12 07:05:00,56.8,50.4,30.00,North,-999,0.0,0.0,79,0.00,,,-99.99,FreeWX 2.05,2013-08-12 06:05:00,
2013-08-12 07:15:00,57.0,50.5,30.00,North,-999,0.0,0.0,79,0.00,,,-99.99,FreeWX 2.05,2013-08-12 06:15:00,
2013-08-12 07:20:00,57.2,51.1,30.00,North,-999,0.0,2.7,80,0.00,,,-99.99,FreeWX 2.05,2013-08-12 06:20:00,
2013-08-12 07:30:00,57.4,51.3,30.00,North,-999,0.0,5.4,80,0.00,,,-99.99,FreeWX 2.05,2013-08-12 06:30:00,
2013-08-12 07:40:00,57.6,51.4,30.00,West,272,1.0,4.0,80,0.00,,,-99.99,FreeWX 2.05,2013-08-12 06:40:00,
2013-08-12 07:50:00,57.9,51.8,30.00,North,-999,0.0,4.0,80,0.00,,,-99.99,FreeWX 2.05,2013-08-12 06:50:00,
2013-08-12 08:00:00,58.1,52.0,30.00,WSW,246,2.0,4.9,80,0.00,,,-99.99,FreeWX 2.05,2013-08-12 07:00:00,
2013-08-12 08:05:00,58.3,52.2,30.00,WSW,245,2.0,5.4,80,0.00,,,-99.99,FreeWX 2.05,2013-08-12 07:05:00,
2013-08-12 08:10:00,58.5,52.3,30.00,SW,226,2.0,4.9,80,0.00,,,-99.99,FreeWX 2.05,2013-08-12 07:10:00,
2013-08-12 08:20:00,58.8,52.7,30.00,WSW,243,1.0,4.5,80,0.00,,,-99.99,FreeWX 2.05,2013-08-12 07:20:00,
2013-08-12 08:25:00,59.2,53.1,30.00,WSW,244,1.0,4.5,80,0.00,,,-99.99,FreeWX 2.05,2013-08-12 07:25:00,
2013-08-12 08:30:00,59.7,53.6,30.00,West,279,2.0,4.5,80,0.00,,,-99.99,FreeWX 2.05,2013-08-12 07:30:00,
2013-08-12 08:35:00,60.1,53.6,30.00,West,274,2.0,5.4,79,0.00,,,-99.99,FreeWX 2.05,2013-08-12 07:35:00,
2013-08-12 08:45:00,60.1,52.9,30.00,SW,225,2.0,5.4,77,0.00,,,-99.99,FreeWX 2.05,2013-08-12 07:45:00,
2013-08-12 08:55:00,60.6,53.4,30.00,West,261,2.0,5.4,77,0.00,,,-99.99,FreeWX 2.05,2013-08-12 07:55:00,
2013-08-12 09:00:00,60.8,53.2,30.00,West,271,2.0,6.3,76,0.00,,,-99.99,FreeWX 2.05,2013-08-12 08:00:00,
2013-08-12 09:10:00,61.7,53.2,30.00,West,270,2.0,8.7,74,0.00,,,-99.99,FreeWX 2.05,2013-08-12 08:10:00,
2013-08-12 09:15:00,62.1,53.2,30.00,WSW,256,2.0,5.8,73,0.00,,,-99.99,FreeWX 2.05,2013-08-12 08:15:00,
2013-08-12 09:20:00,62.1,52.9,30.00,WSW,254,3.0,6.9,72,0.00,,,-99.99,FreeWX 2.05,2013-08-12 08:20:00,
2013-08-12 09:25:00,62.1,52.5,30.00,WSW,246,3.0,7.4,71,0.00,,,-99.99,FreeWX 2.05,2013-08-12 08:25:00,
2013-08-12 09:35:00,61.9,51.6,30.00,WSW,244,3.0,7.4,69,0.00,,,-99.99,FreeWX 2.05,2013-08-12 08:35:00,
2013-08-12 09:40:00,62.2,51.6,30.00,West,267,3.0,6.7,68,0.00,,,-99.99,FreeWX 2.05,2013-08-12 08:40:00,
2013-08-12 09:50:00,63.0,51.8,30.00,West,260,4.0,6.7,67,0.00,,,-99.99,FreeWX 2.05,2013-08-12 08:50:00,
2013-08-12 09:56:00,63.5,51.1,30.00,West,270,4.0,8.7,64,0.00,,,-99.99,FreeWX 2.05,2013-08-12 08:56:00,
2013-08-12 10:05:00,64.8,51.4,30.00,WSW,253,3.0,6.7,62,0.00,,,-99.99,FreeWX 2.05,2013-08-12 09:05:00,
2013-08-12 10:10:00,65.1,50.9,30.00,WSW,250,3.0,6.3,60,0.00,,,-99.99,FreeWX 2.05,2013-08-12 09:10:00,
2013-08-12 10:15:00,65.5,50.4,30.00,WSW,252,3.0,9.6,58,0.00,,,-99.99,FreeWX 2.05,2013-08-12 09:15:00,
2013-08-12 10:25:00,65.5,47.8,30.00,West,261,3.0,6.3,53,0.00,,,-99.99,FreeWX 2.05,2013-08-12 09:25:00,
2013-08-12 10:35:00,66.6,47.8,30.00,WSW,241,3.0,7.8,51,0.00,,,-99.99,FreeWX 2.05,2013-08-12 09:35:00,
2013-08-12 10:40:00,66.6,45.7,30.00,SW,236,4.0,8.3,47,0.00,,,-99.99,FreeWX 2.05,2013-08-12 09:40:00,
2013-08-12 10:50:00,66.2,44.2,30.00,West,265,4.0,6.7,45,0.00,,,-99.99,FreeWX 2.05,2013-08-12 09:50:00,
2013-08-12 10:55:00,66.2,44.2,30.00,West,272,3.0,6.3,45,0.00,,,-99.99,FreeWX 2.05,2013-08-12 09:55:00,
2013-08-12 11:05:00,66.0,42.8,30.00,WSW,243,4.0,9.6,43,0.00,,,-99.99,FreeWX 2.05,2013-08-12 10:05:00,
2013-08-12 11:10:00,66.0,42.8,30.00,West,272,4.0,8.7,43,0.00,,,-99.99,FreeWX 2.05,2013-08-12 10:10:00,
2013-08-12 11:15:00,65.8,42.1,30.00,WNW,298,4.0,8.3,42,0.00,,,-99.99,FreeWX 2.05,2013-08-12 10:15:00,
2013-08-12 11:30:00,66.0,41.7,30.00,West,277,3.0,7.4,41,0.00,,,-99.99,FreeWX 2.05,2013-08-12 10:30:00,
2013-08-12 11:36:00,66.4,39.9,30.00,West,272,4.0,9.6,38,0.00,,,-99.99,FreeWX 2.05,2013-08-12 10:36:00,
2013-08-12 11:46:00,66.4,38.7,30.00,WNW,289,4.0,8.3,36,0.00,,,-99.99,FreeWX 2.05,2013-08-12 10:46:00,
2013-08-12 11:52:00,66.6,38.8,30.00,West,277,4.0,9.6,36,0.00,,,-99.99,FreeWX 2.05,2013-08-12 10:52:00,
2013-08-12 11:57:00,66.7,38.8,30.00,West,265,5.0,8.7,36,0.00,,,-99.99,FreeWX 2.05,2013-08-12 10:57:00,
2013-08-12 12:02:00,67.5,39.6,30.00,WSW,248,4.0,7.8,36,0.00,,,-99.99,FreeWX 2.05,2013-08-12 11:02:00,
2013-08-12 12:07:00,67.8,39.9,30.00,WSW,244,4.0,7.4,36,0.00,,,-99.99,FreeWX 2.05,2013-08-12 11:07:00,
2013-08-12 12:17:00,67.6,39.0,30.00,WSW,257,4.0,8.3,35,0.00,,,-99.99,FreeWX 2.05,2013-08-12 11:17:00,
2013-08-12 12:23:00,67.8,38.5,30.00,WSW,252,5.0,9.6,34,0.00,,,-99.99,FreeWX 2.05,2013-08-12 11:23:00,
2013-08-12 12:28:00,67.8,39.2,30.00,West,277,5.0,9.2,35,0.00,,,-99.99,FreeWX 2.05,2013-08-12 11:28:00,
2013-08-12 12:33:00,68.0,39.4,30.00,WNW,290,5.0,7.8,35,0.00,,,-99.99,FreeWX 2.05,2013-08-12 11:33:00,
2013-08-12 12:47:00,68.7,38.5,30.00,West,279,4.0,8.7,33,0.00,,,-99.99,FreeWX 2.05,2013-08-12 11:47:00,
2013-08-12 12:54:00,68.9,37.8,30.00,WNW,295,4.0,6.9,32,0.00,,,-99.99,FreeWX 2.05,2013-08-12 11:54:00,
2013-08-12 13:03:00,68.7,37.6,30.00,WNW,294,4.0,7.4,32,0.00,,,-99.99,FreeWX 2.05,2013-08-12 12:03:00,
2013-08-12 13:08:00,68.4,37.4,30.00,WNW,296,3.0,5.8,32,0.00,,,-99.99,FreeWX 2.05,2013-08-12 12:08:00,
2013-08-12 13:13:00,68.2,37.2,30.00,WNW,283,3.0,6.7,32,0.00,,,-99.99,FreeWX 2.05,2013-08-12 12:13:00,
2013-08-12 13:24:00,68.7,36.9,30.00,WNW,298,3.0,10.5,31,0.00,,,-99.99,FreeWX 2.05,2013-08-12 12:24:00,
2013-08-12 13:29:00,68.4,36.5,30.00,WNW,294,4.0,7.4,31,0.00,,,-99.99,FreeWX 2.05,2013-08-12 12:29:00,
2013-08-12 13:38:00,68.0,37.0,30.00,WNW,282,4.0,6.7,32,0.00,,,-99.99,FreeWX 2.05,2013-08-12 12:38:00,
2013-08-12 13:43:00,67.6,36.7,30.00,WNW,287,4.0,6.9,32,0.00,,,-99.99,FreeWX 2.05,2013-08-12 12:43:00,
2013-08-12 13:48:00,68.0,37.0,30.00,WNW,285,4.0,8.3,32,0.00,,,-99.99,FreeWX 2.05,2013-08-12 12:48:00,
2013-08-12 13:58:00,68.5,37.6,30.00,WNW,285,4.0,8.7,32,0.00,,,-99.99,FreeWX 2.05,2013-08-12 12:58:00,
2013-08-12 14:08:00,69.3,38.1,30.00,West,266,4.0,8.3,32,0.00,,,-99.99,FreeWX 2.05,2013-08-12 13:08:00,
2013-08-12 14:13:00,70.2,38.8,30.00,SW,233,4.0,7.4,32,0.00,,,-99.99,FreeWX 2.05,2013-08-12 13:13:00,
2013-08-12 14:23:00,71.1,38.1,30.00,WSW,257,4.0,10.1,30,0.00,,,-99.99,FreeWX 2.05,2013-08-12 13:23:00,
2013-08-12 14:28:00,71.2,36.5,29.97,WSW,258,4.0,7.8,28,0.00,,,-99.99,FreeWX 2.05,2013-08-12 13:28:00,
2013-08-12 14:33:00,70.7,36.9,29.97,West,260,4.0,8.7,29,0.00,,,-99.99,FreeWX 2.05,2013-08-12 13:33:00,
2013-08-12 14:38:00,70.2,36.5,29.97,WSW,254,4.0,6.9,29,0.00,,,-99.99,FreeWX 2.05,2013-08-12 13:38:00,
2013-08-12 14:43:00,69.6,36.9,30.00,WSW,254,4.0,8.7,30,0.00,,,-99.99,FreeWX 2.05,2013-08-12 13:43:00,
2013-08-12 14:51:00,68.9,37.8,30.00,WNW,285,4.0,9.2,32,0.00,,,-99.99,FreeWX 2.05,2013-08-12 13:51:00,
2013-08-12 14:58:00,68.7,37.6,30.00,WNW,297,3.0,8.3,32,0.00,,,-99.99,FreeWX 2.05,2013-08-12 13:58:00,
2013-08-12 15:08:00,68.4,38.1,30.00,West,278,4.0,7.8,33,0.00,,,-99.99,FreeWX 2.05,2013-08-12 14:08:00,
2013-08-12 15:18:00,68.9,38.7,30.00,WNW,286,4.0,8.3,33,0.00,,,-99.99,FreeWX 2.05,2013-08-12 14:18:00,
2013-08-12 15:28:00,68.9,38.7,30.00,WNW,282,4.0,7.8,33,0.00,,,-99.99,FreeWX 2.05,2013-08-12 14:28:00,
2013-08-12 15:33:00,68.7,38.5,30.00,West,279,4.0,7.8,33,0.00,,,-99.99,FreeWX 2.05,2013-08-12 14:33:00,
2013-08-12 15:38:00,68.5,37.6,30.00,WNW,284,4.0,8.3,32,0.00,,,-99.99,FreeWX 2.05,2013-08-12 14:38:00,
2013-08-12 15:43:00,68.4,38.1,30.00,West,278,4.0,8.3,33,0.00,,,-99.99,FreeWX 2.05,2013-08-12 14:43:00,
2013-08-12 15:48:00,68.2,37.9,30.00,West,271,4.0,7.8,33,0.00,,,-99.99,FreeWX 2.05,2013-08-12 14:48:00,
2013-08-12 15:58:00,68.7,38.5,29.97,WNW,284,4.0,6.3,33,0.00,,,-99.99,FreeWX 2.05,2013-08-12 14:58:00,
2013-08-12 16:08:00,69.8,38.7,29.97,West,273,4.0,7.4,32,0.00,,,-99.99,FreeWX 2.05,2013-08-12 15:08:00,
2013-08-12 16:18:00,69.4,38.3,29.97,West,270,4.0,6.7,32,0.00,,,-99.99,FreeWX 2.05,2013-08-12 15:18:00,
2013-08-12 16:23:00,69.3,38.1,29.97,West,264,4.0,8.3,32,0.00,,,-99.99,FreeWX 2.05,2013-08-12 15:23:00,
2013-08-12 16:29:00,69.1,37.9,29.97,West,280,4.0,8.3,32,0.00,,,-99.99,FreeWX 2.05,2013-08-12 15:29:00,
2013-08-12 16:38:00,68.7,37.6,29.97,West,276,4.0,8.3,32,0.00,,,-99.99,FreeWX 2.05,2013-08-12 15:38:00,
2013-08-12 16:43:00,68.4,37.4,29.97,WNW,290,5.0,9.2,32,0.00,,,-99.99,FreeWX 2.05,2013-08-12 15:43:00,
2013-08-12 16:48:00,68.2,37.9,29.97,WNW,298,5.0,8.7,33,0.00,,,-99.99,FreeWX 2.05,2013-08-12 15:48:00,
2013-08-12 16:58:00,68.0,37.8,29.97,WNW,289,4.0,9.2,33,0.00,,,-99.99,FreeWX 2.05,2013-08-12 15:58:00,
2013-08-12 17:08:00,68.4,38.1,29.97,West,261,4.0,10.1,33,0.00,,,-99.99,FreeWX 2.05,2013-08-12 16:08:00,
2013-08-12 17:14:00,68.5,38.3,30.00,WSW,256,4.0,8.7,33,0.00,,,-99.99,FreeWX 2.05,2013-08-12 16:14:00,
2013-08-12 17:20:00,68.9,38.7,30.00,WSW,250,4.0,8.3,33,0.00,,,-99.99,FreeWX 2.05,2013-08-12 16:20:00,
2013-08-12 17:30:00,68.5,38.3,30.00,West,268,4.0,7.8,33,0.00,,,-99.99,FreeWX 2.05,2013-08-12 16:30:00,
2013-08-12 17:35:00,68.4,38.1,30.00,West,274,4.0,6.7,33,0.00,,,-99.99,FreeWX 2.05,2013-08-12 16:35:00,
2013-08-12 17:45:00,67.8,38.5,30.00,West,273,3.0,7.8,34,0.00,,,-99.99,FreeWX 2.05,2013-08-12 16:45:00,
2013-08-12 17:55:00,67.5,38.1,30.00,WNW,289,3.0,6.3,34,0.00,,,-99.99,FreeWX 2.05,2013-08-12 16:55:00,
2013-08-12 18:05:00,67.5,38.1,30.00,West,275,4.0,7.8,34,0.00,,,-99.99,FreeWX 2.05,2013-08-12 17:05:00,
2013-08-12 18:10:00,67.3,37.9,30.00,West,276,4.0,5.8,34,0.00,,,-99.99,FreeWX 2.05,2013-08-12 17:10:00,
2013-08-12 18:20:00,67.1,38.5,30.00,West,276,4.0,6.7,35,0.00,,,-99.99,FreeWX 2.05,2013-08-12 17:20:00,
2013-08-12 18:25:00,67.1,38.5,29.97,WNW,287,4.0,9.6,35,0.00,,,-99.99,FreeWX 2.05,2013-08-12 17:25:00,
2013-08-12 18:30:00,67.5,38.8,29.97,West,268,4.0,8.7,35,0.00,,,-99.99,FreeWX 2.05,2013-08-12 17:30:00,
2013-08-12 18:40:00,67.3,38.7,30.00,West,277,5.0,10.5,35,0.00,,,-99.99,FreeWX 2.05,2013-08-12 17:40:00,
2013-08-12 18:45:00,66.9,38.3,30.00,West,277,5.0,9.6,35,0.00,,,-99.99,FreeWX 2.05,2013-08-12 17:45:00,
2013-08-12 18:50:00,66.7,38.8,30.00,West,280,5.0,8.7,36,0.00,,,-99.99,FreeWX 2.05,2013-08-12 17:50:00,
2013-08-12 18:55:00,66.6,38.8,30.00,West,270,4.0,7.8,36,0.00,,,-99.99,FreeWX 2.05,2013-08-12 17:55:00,
2013-08-12 19:05:00,66.2,38.5,30.00,West,274,4.0,8.7,36,0.00,,,-99.99,FreeWX 2.05,2013-08-12 18:05:00,
2013-08-12 19:10:00,66.0,39.0,30.00,West,275,4.0,9.6,37,0.00,,,-99.99,FreeWX 2.05,2013-08-12 18:10:00,
2013-08-12 19:20:00,65.8,38.8,30.00,West,280,4.0,6.7,37,0.00,,,-99.99,FreeWX 2.05,2013-08-12 18:20:00,
2013-08-12 19:25:00,65.8,38.8,30.00,West,281,4.0,7.8,37,0.00,,,-99.99,FreeWX 2.05,2013-08-12 18:25:00,
2013-08-12 19:35:00,65.7,39.4,30.00,West,271,4.0,6.3,38,0.00,,,-99.99,FreeWX 2.05,2013-08-12 18:35:00,
2013-08-12 19:45:00,65.7,39.4,30.00,WNW,285,3.0,6.3,38,0.00,,,-99.99,FreeWX 2.05,2013-08-12 18:45:00,
2013-08-12 19:50:00,65.7,40.1,30.00,West,281,2.0,5.4,39,0.00,,,-99.99,FreeWX 2.05,2013-08-12 18:50:00,
2013-08-12 19:55:00,65.5,39.9,30.00,WNW,282,3.0,9.2,39,0.00,,,-99.99,FreeWX 2.05,2013-08-12 18:55:00,
2013-08-12 20:05:00,64.9,40.1,30.00,West,276,2.0,6.3,40,0.00,,,-99.99,FreeWX 2.05,2013-08-12 19:05:00,
2013-08-12 20:15:00,64.4,40.1,30.00,WNW,287,2.0,5.8,41,0.00,,,-99.99,FreeWX 2.05,2013-08-12 19:15:00,
2013-08-12 20:25:00,63.9,40.3,30.00,West,270,2.0,6.9,42,0.00,,,-99.99,FreeWX 2.05,2013-08-12 19:25:00,
2013-08-12 20:35:00,63.5,40.6,30.00,WNW,297,2.0,5.8,43,0.00,,,-99.99,FreeWX 2.05,2013-08-12 19:35:00,
2013-08-12 20:40:00,63.3,41.0,30.03,WNW,298,2.0,5.4,44,0.00,,,-99.99,FreeWX 2.05,2013-08-12 19:40:00,
2013-08-12 20:50:00,63.0,40.6,30.03,North,-999,0.0,4.5,44,0.00,,,-99.99,FreeWX 2.05,2013-08-12 19:50:00,
2013-08-12 20:55:00,62.6,40.5,30.03,North,-999,0.0,3.1,44,0.00,,,-99.99,FreeWX 2.05,2013-08-12 19:55:00,
2013-08-12 21:05:00,62.1,39.9,30.03,North,-999,0.0,3.6,44,0.00,,,-99.99,FreeWX 2.05,2013-08-12 20:05:00,
2013-08-12 21:10:00,61.9,40.3,30.03,West,271,2.0,6.9,45,0.00,,,-99.99,FreeWX 2.05,2013-08-12 20:10:00,
2013-08-12 21:20:00,61.7,40.6,30.03,West,272,3.0,6.9,46,0.00,,,-99.99,FreeWX 2.05,2013-08-12 20:20:00,
2013-08-12 21:25:00,61.7,40.6,30.03,WNW,287,3.0,6.7,46,0.00,,,-99.99,FreeWX 2.05,2013-08-12 20:25:00,
2013-08-12 21:35:00,61.7,40.6,30.03,West,260,3.0,6.7,46,0.00,,,-99.99,FreeWX 2.05,2013-08-12 20:35:00,
2013-08-12 21:40:00,61.5,40.5,30.06,West,273,2.0,5.4,46,0.00,,,-99.99,FreeWX 2.05,2013-08-12 20:40:00,
2013-08-12 21:50:00,61.0,40.1,30.06,WNW,289,1.0,4.9,46,0.00,,,-99.99,FreeWX 2.05,2013-08-12 20:50:00,
2013-08-12 21:55:00,60.8,39.9,30.06,NW,311,2.0,4.5,46,0.00,,,-99.99,FreeWX 2.05,2013-08-12 20:55:00,
2013-08-12 22:00:00,60.6,39.7,30.06,WNW,294,2.0,4.5,46,0.00,,,-99.99,FreeWX 2.05,2013-08-12 21:00:00,
2013-08-12 22:05:00,60.4,40.1,30.06,WNW,285,2.0,4.5,47,0.00,,,-99.99,FreeWX 2.05,2013-08-12 21:05:00,
2013-08-12 22:15:00,60.1,39.7,30.06,North,-999,0.0,4.5,47,0.00,,,-99.99,FreeWX 2.05,2013-08-12 21:15:00,
2013-08-12 22:20:00,59.7,39.9,30.06,WNW,296,1.0,4.9,48,0.00,,,-99.99,FreeWX 2.05,2013-08-12 21:20:00,
2013-08-12 22:25:00,59.5,40.3,30.06,WNW,298,1.0,4.9,49,0.00,,,-99.99,FreeWX 2.05,2013-08-12 21:25:00,
2013-08-12 22:35:00,59.2,40.6,30.06,West,272,2.0,5.8,50,0.00,,,-99.99,FreeWX 2.05,2013-08-12 21:35:00,
2013-08-12 22:40:00,59.2,41.0,30.06,WNW,284,3.0,6.9,51,0.00,,,-99.99,FreeWX 2.05,2013-08-12 21:40:00,
2013-08-12 22:50:00,58.8,40.6,30.06,West,279,2.0,5.4,51,0.00,,,-99.99,FreeWX 2.05,2013-08-12 21:50:00,
2013-08-12 22:55:00,58.6,41.0,30.06,West,267,2.0,5.8,52,0.00,,,-99.99,FreeWX 2.05,2013-08-12 21:55:00,
2013-08-12 23:00:00,58.5,40.8,30.06,West,259,2.0,4.5,52,0.00,,,-99.99,FreeWX 2.05,2013-08-12 22:00:00,
2013-08-12 23:05:00,58.5,40.8,30.06,West,276,1.0,4.5,52,0.00,,,-99.99,FreeWX 2.05,2013-08-12 22:05:00,
2013-08-12 23:15:00,58.1,41.0,30.06,West,274,1.0,4.0,53,0.00,,,-99.99,FreeWX 2.05,2013-08-12 22:15:00,
2013-08-12 23:25:00,57.7,41.2,30.06,North,-999,0.0,4.0,54,0.00,,,-99.99,FreeWX 2.05,2013-08-12 22:25:00,
2013-08-12 23:30:00,57.6,41.0,30.06,North,-999,0.0,5.4,54,0.00,,,-99.99,FreeWX 2.05,2013-08-12 22:30:00,
2013-08-12 23:40:00,57.4,41.4,30.06,North,-999,0.0,4.0,55,0.00,,,-99.99,FreeWX 2.05,2013-08-12 22:40:00,
2013-08-12 23:50:00,57.2,41.2,30.06,North,-999,0.0,0.0,55,0.00,,,-99.99,FreeWX 2.05,2013-08-12 22:50:00,